Newton, NJ

5:54 PM EST on February 27, 2017 (GMT -0500)
Andover

Weather History for K12N - October, 2012

Change the Weather History Date:

Friday, October 12, 2012

  Actual Average (KFWN) Record (KFWN)
Temperature  
Mean Temperature 45 °F -  
Max Temperature 55 °F 62 °F 86 °F (1954)
Min Temperature 36 °F 36 °F 23 °F (1964)
Degree Days  
Heating Degree Days 20    
Moisture  
Dew Point 33 °F    
Average Humidity 70    
Maximum Humidity 96    
Minimum Humidity 42    
Precipitation  
Precipitation 0.00 in - - ()
Sea Level Pressure  
Sea Level Pressure 30.22 in    
Wind  
Wind Speed 2 mph (NNW)    
Max Wind Speed 12 mph    
Max Gust Speed 24 mph    
Averages and records for this station are not official NWS values.
T = Trace of Precipitation, MM = Missing Value Source: NWS Daily Summary

Daily Weather History Graph

Daily Weather History Graph

Search for Another Location

Airport or City:

Trip Planner

Search our weather history database for the weather conditions in past years. The results will help you decide how hot, cold, wet, or windy it might be!

Date:

Astronomy

Oct. 12, 2012 Rise Set
Actual Time 7:07 AM EDT 6:22 PM EDT
Civil Twilight 6:40 AM EDT 6:49 PM EDT
Nautical Twilight 6:08 AM EDT 7:21 PM EDT
Astronomical Twilight 5:36 AM EDT 7:53 PM EDT
Moon 3:46 AM EDT (10/12) 4:31 PM EDT (10/12)
Length of Visible Light 12h 09m
Length of Day
11h 14m
Waning Crescent, 11% of the Moon is Illuminated
Oct 12
Waning Crescent
Oct 15
New
Oct 21
First Quarter
Oct 29
Full
Nov 6
Last Quarter

Hourly Weather History & Observations

Time (EDT) Temp. Windchill Dew Point Humidity Pressure Visibility Wind Dir Wind Speed Gust Speed Precip Events Conditions
12:54 AM 41.0 °F - 37.9 °F 89% 30.16 in - Calm Calm - N/A   Unknown
1:54 AM 39.9 °F - 37.0 °F 89% 30.14 in - Calm Calm - N/A   Unknown
2:54 AM 39.0 °F - 37.0 °F 93% 30.12 in - Calm Calm - N/A   Unknown
3:54 AM 37.9 °F - 36.0 °F 93% 30.11 in - Calm Calm - N/A   Unknown
4:54 AM 37.0 °F - 36.0 °F 96% 30.09 in - Calm Calm - N/A   Unknown
5:54 AM 37.0 °F 34.5 °F 36.0 °F 96% 30.09 in - SSW 3.5 mph - N/A   Unknown
6:54 AM 37.0 °F - 36.0 °F 96% 30.10 in - Calm Calm - N/A   Unknown
7:54 AM 39.9 °F - 37.9 °F 93% 30.10 in - Calm Calm - N/A   Unknown
8:54 AM 44.1 °F - 39.0 °F 82% 30.12 in - Calm Calm - N/A   Unknown
9:54 AM 46.0 °F - 41.0 °F 83% 30.14 in - Calm Calm - N/A   Unknown
10:54 AM 50.0 °F - 42.1 °F 74% 30.17 in - Calm Calm - N/A   Unknown
11:54 AM 51.1 °F - 39.0 °F 63% 30.19 in - North 8.1 mph - N/A   Unknown
12:54 PM 51.1 °F - 35.1 °F 54% 30.19 in - North 10.4 mph 19.6 mph N/A   Unknown
1:54 PM 52.0 °F - 34.0 °F 50% 30.20 in - NNW 10.4 mph 17.3 mph N/A   Unknown
2:54 PM 53.1 °F - 34.0 °F 48% 30.22 in - NNW 11.5 mph 24.2 mph N/A   Unknown
3:54 PM 52.0 °F - 30.9 °F 45% 30.23 in - North 6.9 mph 17.3 mph N/A   Unknown
4:54 PM 51.1 °F - 28.9 °F 43% 30.27 in - North 9.2 mph 17.3 mph N/A   Unknown
5:54 PM 48.0 °F - 26.1 °F 42% 30.30 in - NNW 9.2 mph 17.3 mph N/A   Unknown
7:54 PM 45.0 °F 41.8 °F 24.1 °F 44% 30.37 in - North 5.8 mph - N/A   Unknown
8:54 PM 42.1 °F - 24.1 °F 49% 30.40 in - Calm Calm - N/A   Unknown
9:54 PM 41.0 °F 38.0 °F 24.1 °F 51% 30.42 in - NNW 4.6 mph - N/A   Unknown
10:54 PM 39.0 °F 36.8 °F 25.0 °F 57% 30.43 in - North 3.5 mph - N/A   Unknown
11:54 PM 36.0 °F - 27.0 °F 70% 30.46 in - Calm Calm - N/A   Unknown